• In Uzbekistan
  • List of Countries
  • For 7 days
  • Water Temperature
  • Satellite Maps
  • Weather Map
  • Weather Widgets
  • user-avatar
    Login

    Hourly Weather Newcastle

    Today, 24 June, Sunday

    Time Temperature Precipitation Wind Pressure Humidity
    00:00 +9°C° 0 mm 2 mps 768 mmHg 78%
    01:00 +8°C° 0 mm 2 mps 768 mmHg 79%
    02:00 +8°C° 0 mm 2 mps 768 mmHg 79%
    03:00 +7°C° 0 mm 2 mps 768 mmHg 79%
    04:00 +7°C° 0 mm 3 mps 767 mmHg 81%
    05:00 +7°C° 0 mm 3 mps 768 mmHg 80%
    06:00 +7°C° 0 mm 3 mps 768 mmHg 80%
    07:00 +7°C° 0 mm 3 mps 768 mmHg 80%
    08:00 +9°C° 0 mm 3 mps 769 mmHg 72%
    09:00 +11°C° 0 mm 3 mps 769 mmHg 64%
    10:00 +14°C° 0 mm 3 mps 769 mmHg 52%
    11:00 +16°C° 0 mm 3 mps 769 mmHg 50%
    12:00 +17°C° 0 mm 3 mps 768 mmHg 48%
    13:00 +18°C° 0 mm 3 mps 768 mmHg 46%
    14:00 +18°C° 0 mm 3 mps 768 mmHg 51%
    15:00 +17°C° 0 mm 3 mps 768 mmHg 56%
    16:00 +15°C° 0 mm 4 mps 767 mmHg 66%
    17:00 +13°C° 0 mm 4 mps 768 mmHg 73%
    18:00 +12°C° 0 mm 4 mps 769 mmHg 79%
    19:00 +11°C° 0 mm 4 mps 769 mmHg 86%
    20:00 +10°C° 0 mm 4 mps 769 mmHg 87%
    21:00 +10°C° 0 mm 3 mps 770 mmHg 88%
    22:00 +9°C° 0 mm 2 mps 770 mmHg 91%
    23:00 +9°C° 0 mm 2 mps 770 mmHg 91%

    Tomorrow, 25 June, Monday

    Time Temperature Precipitation Wind Pressure Humidity
    00:00 +9°C° 0 mm 3 mps 770 mmHg 92%
    01:00 +8°C° 0 mm 3 mps 770 mmHg 93%
    02:00 +8°C° 0 mm 3 mps 770 mmHg 93%
    03:00 +8°C° 0 mm 3 mps 770 mmHg 94%
    04:00 +8°C° 0 mm 3 mps 770 mmHg 95%
    05:00 +7°C° 0 mm 3 mps 771 mmHg 95%
    06:00 +7°C° 0 mm 3 mps 771 mmHg 95%
    07:00 +7°C° 0 mm 3 mps 771 mmHg 95%
    08:00 +9°C° 0 mm 3 mps 771 mmHg 85%
    09:00 +11°C° 0 mm 3 mps 771 mmHg 75%
    10:00 +14°C° 0 mm 3 mps 772 mmHg 65%
    11:00 +16°C° 0 mm 3 mps 771 mmHg 60%
    12:00 +17°C° 0 mm 3 mps 771 mmHg 54%
    13:00 +18°C° 0 mm 3 mps 770 mmHg 48%
    14:00 +18°C° 0 mm 3 mps 770 mmHg 52%
    15:00 +17°C° 0 mm 3 mps 770 mmHg 55%
    16:00 +16°C° 0 mm 3 mps 770 mmHg 59%
    17:00 +13°C° 0 mm 3 mps 771 mmHg 65%
    18:00 +12°C° 0 mm 2 mps 771 mmHg 72%
    19:00 +9°C° 0 mm 2 mps 772 mmHg 78%
    20:00 +9°C° 0 mm 2 mps 772 mmHg 80%
    21:00 +9°C° 0 mm 2 mps 772 mmHg 82%
    22:00 +8°C° 0 mm 2 mps 773 mmHg 85%
    23:00 +8°C° 0 mm 2 mps 773 mmHg 87%

    Day after tomorrow, 26 June, Tuesday

    Time Temperature Precipitation Wind Pressure Humidity
    00:00 +7°C° 0 mm 2 mps 773 mmHg 89%
    01:00 +7°C° 0 mm 2 mps 773 mmHg 91%
    02:00 +7°C° 0 mm 2 mps 773 mmHg 92%
    03:00 +7°C° 0 mm 2 mps 773 mmHg 93%
    04:00 +7°C° 0 mm 2 mps 773 mmHg 94%
    05:00 +6°C° 0 mm 2 mps 773 mmHg 94%
    06:00 +6°C° 0 mm 2 mps 773 mmHg 95%
    07:00 +5°C° 0 mm 3 mps 774 mmHg 95%
    08:00 +9°C° 0 mm 2 mps 774 mmHg 86%
    09:00 +13°C° 0 mm 2 mps 774 mmHg 78%
    10:00 +15°C° 0 mm 2 mps 774 mmHg 69%
    11:00 +16°C° 0 mm 2 mps 773 mmHg 66%
    12:00 +17°C° 0 mm 2 mps 773 mmHg 63%
    13:00 +19°C° 0 mm 2 mps 772 mmHg 60%
    14:00 +18°C° 0 mm 2 mps 772 mmHg 65%
    15:00 +17°C° 0 mm 2 mps 772 mmHg 69%
    16:00 +17°C° 0 mm 2 mps 772 mmHg 74%
    17:00 +15°C° 0 mm 2 mps 773 mmHg 81%
    18:00 +14°C° 0 mm 2 mps 773 mmHg 88%
    19:00 +12°C° 0 mm 1 mps 773 mmHg 96%
    20:00 +12°C° 0 mm 2 mps 774 mmHg 96%
    21:00 +12°C° 0 mm 2 mps 774 mmHg 96%
    22:00 +10°C° 0 mm 2 mps 774 mmHg 97%
    23:00 +10°C° 0.1 mm 2 mps 774 mmHg 97%

    27 June, Wednesday

    Time Temperature Precipitation Wind Pressure Humidity
    00:00 +10°C° 0.1 mm 2 mps 773 mmHg 97%
    01:00 +10°C° 0.1 mm 2 mps 773 mmHg 98%
    02:00 +10°C° 0.1 mm 2 mps 773 mmHg 98%
    03:00 +9°C° 0.1 mm 2 mps 773 mmHg 98%
    04:00 +10°C° 0.1 mm 1 mps 772 mmHg 98%
    05:00 +11°C° 0 mm 1 mps 772 mmHg 98%
    06:00 +11°C° 0 mm 1 mps 773 mmHg 98%
    07:00 +11°C° 0 mm 1 mps 773 mmHg 98%
    08:00 +12°C° 0.2 mm 1 mps 773 mmHg 94%
    09:00 +14°C° 0.2 mm 1 mps 773 mmHg 90%
    10:00 +15°C° 0.2 mm 1 mps 773 mmHg 86%
    11:00 +16°C° 0.8 mm 2 mps 772 mmHg 81%
    12:00 +18°C° 0.8 mm 2 mps 771 mmHg 76%
    13:00 +19°C° 0.8 mm 3 mps 770 mmHg 71%
    14:00 +18°C° 0.5 mm 3 mps 770 mmHg 76%
    15:00 +17°C° 0.5 mm 3 mps 770 mmHg 81%
    16:00 +16°C° 0.5 mm 3 mps 770 mmHg 87%
    17:00 +14°C° 0.1 mm 3 mps 770 mmHg 89%
    18:00 +14°C° 0.1 mm 3 mps 770 mmHg 91%
    19:00 +13°C° 0.1 mm 3 mps 770 mmHg 93%
    20:00 +13°C° 0 mm 3 mps 770 mmHg 93%
    21:00 +12°C° 0 mm 3 mps 770 mmHg 93%
    22:00 +12°C° 0 mm 3 mps 770 mmHg 93%
    23:00 +12°C° 0.1 mm 3 mps 770 mmHg 93%

    28 June, Thursday

    Time Temperature Precipitation Wind Pressure Humidity
    00:00 +12°C° 0.1 mm 3 mps 769 mmHg 94%
    01:00 +12°C° 0.1 mm 3 mps 769 mmHg 94%
    02:00 +12°C° 0.5 mm 3 mps 768 mmHg 95%
    03:00 +13°C° 0.5 mm 2 mps 768 mmHg 96%
    04:00 +13°C° 0.5 mm 2 mps 768 mmHg 96%
    05:00 +13°C° 1 mm 2 mps 768 mmHg 97%
    06:00 +13°C° 1 mm 2 mps 768 mmHg 97%
    07:00 +13°C° 1 mm 2 mps 768 mmHg 97%
    08:00 +14°C° 0.3 mm 2 mps 768 mmHg 94%
    09:00 +15°C° 0.3 mm 1 mps 768 mmHg 90%
    10:00 +16°C° 0.3 mm 1 mps 768 mmHg 86%
    11:00 +18°C° 0.1 mm 1 mps 767 mmHg 81%
    12:00 +19°C° 0.1 mm 1 mps 766 mmHg 76%
    13:00 +20°C° 0.1 mm 1 mps 765 mmHg 71%
    14:00 +20°C° 0.1 mm 1 mps 765 mmHg 73%
    15:00 +20°C° 0.1 mm 1 mps 765 mmHg 75%
    16:00 +19°C° 0.1 mm 1 mps 764 mmHg 77%
    17:00 +18°C° 0 mm 1 mps 765 mmHg 82%
    18:00 +15°C° 0 mm 2 mps 765 mmHg 87%
    19:00 +14°C° 0 mm 2 mps 765 mmHg 92%
    20:00 +14°C° 0 mm 2 mps 765 mmHg 92%
    21:00 +13°C° 0 mm 2 mps 765 mmHg 93%
    22:00 +13°C° 0 mm 2 mps 765 mmHg 93%
    23:00 +12°C° 0 mm 3 mps 765 mmHg 94%

    29 June, Friday

    Time Temperature Precipitation Wind Pressure Humidity
    00:00 +11°C° 0 mm 3 mps 765 mmHg 94%
    01:00 +11°C° 0 mm 3 mps 765 mmHg 95%
    02:00 +10°C° 0 mm 3 mps 765 mmHg 95%
    03:00 +10°C° 0 mm 3 mps 765 mmHg 95%
    04:00 +10°C° 0 mm 3 mps 765 mmHg 95%
    05:00 +10°C° 0 mm 3 mps 765 mmHg 95%
    06:00 +10°C° 0 mm 3 mps 765 mmHg 95%
    07:00 +10°C° 0 mm 3 mps 766 mmHg 96%
    08:00 +12°C° 0 mm 3 mps 766 mmHg 88%
    09:00 +14°C° 0 mm 4 mps 766 mmHg 80%
    10:00 +17°C° 0 mm 4 mps 766 mmHg 72%
    11:00 +18°C° 0 mm 4 mps 766 mmHg 66%
    12:00 +19°C° 0 mm 4 mps 765 mmHg 59%
    13:00 +20°C° 0 mm 4 mps 764 mmHg 53%
    14:00 +20°C° 0 mm 4 mps 764 mmHg 55%
    15:00 +19°C° 0 mm 3 mps 764 mmHg 57%
    16:00 +19°C° 0 mm 3 mps 764 mmHg 60%
    17:00 +17°C° 0 mm 3 mps 765 mmHg 65%
    18:00 +14°C° 0 mm 3 mps 766 mmHg 71%
    19:00 +12°C° 0 mm 3 mps 766 mmHg 76%
    20:00 +12°C° 0 mm 3 mps 766 mmHg 77%
    21:00 +11°C° 0 mm 3 mps 767 mmHg 78%
    22:00 +10°C° 0 mm 3 mps 767 mmHg 79%
    23:00 +10°C° 0 mm 3 mps 767 mmHg 80%
    Show more